STARLINK-34850

Last updated on Thu Oct 02 2025 00:02:05 GMT+0000 (Coordinated Universal Time)

1 65460U 25195C 25274.34187500 -.00681724 00000+0 -13631-1 0 9995 2 65460 53.1592 281.4022 0001013 115.4414 244.6700 15.48735673 5559

Satellite not in orbit

STARLINK-34850